Weather in Brodetske

Ukraine / Vinnytsia Region     49°45′27″N   28°37′25″E
temp.,
°C
wind,
m/s
gust,
m/s
humid.,
%
clouds,
%
prec.,
mm/h
press.,
hPa
HPBL,
m
19 may, wed
wed1900:00+12n2292100 1.1 99831
03:00+12nw5998100 2.7 999381
06:00+12nnw61198100 2.2 1000729
09:00+10nw71397100 6.4 1002644
12:00+10nw81397100 8.0 1004649
15:00+11nw71493100 9.8 1006987
18:00+12nw4989100 0.5 1007818
21:00+11wnw5109297 0.9 1008373
20 may, thu
thu2000:00+10wnw599699 0.1 1009319
03:00+10wnw3796100 0.1 1009248
06:00+9w489861 0.0 1010328
09:00+12nw468645 0.0 1010552
12:00+15nw446983 0.4 10101096
15:00+16n3464100 1.2 10101243
18:00+14n3580100 1.0 1010461
21:00+11n4889100 1.4 1012160
21 may, fri
fri2100:00+10nne4891100 0.0 1013166
03:00+8nne3791100 0.0 1014138
06:00+9n3891100 0.0 1015230
09:00+12nne4683100 0.0 1016347
12:00+15nne5667100 0.3 10161117
15:00+16nne556193 0.7 10161519
18:00+16nne356627 0.1 1016968
21:00+11nne33805 0.1 101824
22 may, sat
sat2200:00+9nne22794 0.0 101811
03:00+8ne22810 0.0 101812
06:00+8ene22831 0.0 101817
09:00+14ne227086 0.0 1018404
12:00+18e23584 0.0 10161134
15:00+20se235558 0.0 10151826
18:00+16se4777100 0.0 1014201
21:00+13se46881 0.0 101479
23 may, sun
sun2300:00+12sse358939 0.0 101364
03:00+11ssw3591100 0.0 101279
06:00+11ssw3591100 0.0 1012105
09:00+16sw4577100 0.0 1011336
12:00+19nw4463100 0.0 10111129
15:00+18nw4370100 0.0 1011693
18:00+14nw5987100 1.6 1012480
21:00+11nnw3595100 2.6 1014182